GW1761 Weather Reports


time (UTC)temp
F
wind
direction
speed
knots
gust
knots
rain 1hr
in
rain 24hr
in
rain mn
in
humidity
%
barometer
mb
20260510224601 66 360 0.9 2.6 0.00 0.11 0.05 50 1019.4
20260510223014 66 360 2.6 7.0 0.00 0.11 0.05 51 1019.5
20260510221545 65 360 0.0 4.3 0.00 0.11 0.05 52 1019.5
20260510220025 67 360 2.6 5.2 0.00 0.11 0.05 49 1019.7
20260510214506 68 360 2.6 4.3 0.00 0.11 0.05 49 1019.6
20260510213031 68 360 2.6 5.2 0.00 0.11 0.05 52 1019.8
20260510211504 66 360 3.5 7.0 0.00 0.11 0.05 53 1019.9
20260510210024 66 360 2.6 4.3 0.00 0.11 0.05 53 1020.1
20260510204601 65 360 0.9 3.5 0.00 0.11 0.05 54 1020.4
20260510204502 65 360 0.9 3.5 0.00 0.11 0.05 54 1020.4
20260510203032 65 360 2.6 5.2 0.00 0.11 0.05 55 1020.3
20260510201557 66 360 0.9 7.0 0.00 0.11 0.05 53 1020.4
20260510200015 63 360 1.7 4.3 0.00 0.11 0.05 58 1020.4
20260510194604 64 360 0.9 4.3 0.00 0.11 0.05 57 1020.6
20260510193018 63 360 1.7 4.3 0.00 0.11 0.05 59 1020.7
20260510191554 62 360 1.7 4.3 0.00 0.11 0.05 59 1020.8
20260510190013 62 360 2.6 5.2 0.00 0.11 0.05 63 1020.8
20260510184549 61 360 3.5 7.0 0.00 0.11 0.05 65 1020.9
20260510183020 60 360 1.7 5.2 0.00 0.11 0.05 66 1021.1
20260510181542 59 360 0.9 4.3 0.00 0.11 0.05 68 1021.4
20260510180047 59 360 0.9 4.3 0.00 0.11 0.05 69 1021.4
20260510174522 57 360 0.9 4.3 0.00 0.11 0.05 71 1021.7
20260510173058 57 360 0.9 4.3 0.00 0.11 0.05 75 1021.5
20260510171515 55 360 1.7 4.3 0.00 0.11 0.05 79 1021.5
20260510170054 54 360 0.9 4.3 0.00 0.11 0.05 79 1021.3
20260510164527 53 360 1.7 7.0 0.00 0.11 0.05 83 1021.3
20260510163004 52 360 3.5 7.0 0.01 0.11 0.05 84 1021.1
20260510161541 51 360 4.3 7.0 0.01 0.11 0.05 88 1021.1
20260510160005 51 360 3.5 7.0 0.02 0.11 0.05 92 1021.1
20260510154540 49 360 0.9 2.6 0.02 0.11 0.05 92 1020.9
20260510153036 49 360 3.5 7.0 0.01 0.10 0.04 91 1020.7
20260510151514 49 360 1.7 4.3 0.01 0.09 0.03 92 1020.9
20260510150041 49 360 0.9 2.6 0.02 0.09 0.03 92 1021.0
20260510144520 49 360 1.7 3.5 0.02 0.09 0.03 92 1020.9
20260510143047 49 360 2.6 5.2 0.02 0.09 0.03 92 1020.8
20260510141532 49 360 3.5 7.0 0.01 0.08 0.02 92 1020.6
20260510140008 49 360 3.5 7.0 0.00 0.07 0.01 92 1020.4
20260510134530 49 360 1.7 4.3 0.00 0.07 0.01 91 1020.1
20260510133013 49 360 2.6 3.5 0.00 0.07 0.01 91 1020.2
20260510131529 49 360 1.7 3.5 0.00 0.07 0.01 91 1019.9
20260510130012 49 360 2.6 4.3 0.00 0.07 0.01 92 1019.6
20260510124558 49 360 2.6 4.3 0.00 0.07 0.01 93 1019.1
20260510123010 49 360 1.7 3.5 0.00 0.07 0.01 93 1018.9
20260510121545 48 360 1.7 3.5 0.00 0.07 0.01 93 1018.4
20260510120028 48 360 1.7 4.3 0.00 0.07 0.01 92 1018.2
20260510114507 48 360 2.6 3.5 0.00 0.07 0.01 92 1018.1
20260510113035 48 360 1.7 4.3 0.00 0.07 0.01 92 1018.0
20260510111508 48 360 1.7 3.5 0.00 0.07 0.01 92 1018.1
20260510110058 48 360 1.7 2.6 0.00 0.07 0.01 92 1018.1
20260510104529 48 360 0.9 2.6 0.00 0.07 0.01 92 1018.1
20260510103058 48 360 1.7 3.5 0.00 0.07 0.01 92 1018.2
20260510101534 48 360 2.6 4.3 0.00 0.07 0.01 92 1017.9
20260510100049 49 360 2.6 5.2 0.00 0.07 0.01 92 1017.5
20260510094532 49 360 3.5 5.2 0.00 0.07 0.01 93 1017.3
20260510093053 49 360 1.7 3.5 0.00 0.07 0.01 92 1016.7
20260510091535 49 360 0.9 1.7 0.00 0.07 0.01 92 1016.5
20260510090021 49 360 0.9 1.7 0.00 0.07 0.01 92 1016.4
20260510084547 49 360 0.0 2.6 0.00 0.07 0.01 92 1016.3
20260510083027 49 360 0.0 2.6 0.01 0.07 0.01 91 1015.8
20260510081528 49 360 0.9 2.6 0.01 0.07 0.01 91 1015.8
20260510080045 49 360 1.7 2.6 0.01 0.07 0.01 90 1015.7
20260510074530 50 360 1.7 3.5 0.01 0.07 0.01 90 1015.8
20260510073007 51 360 2.6 4.3 0.00 0.06 0.00 90 1015.7
20260510071522 50 360 0.0 1.7 0.00 0.06 0.00 89 1016.2
20260510070059 50 360 1.7 2.6 0.00 0.06 0.00 88 1016.7
20260510070001 50 360 1.7 2.6 0.00 0.06 0.00 88 1016.8
20260510064520 50 360 0.0 0.9 0.00 0.06 0.00 88 1016.3
20260510063055 51 360 0.0 3.5 0.00 0.06 0.00 87 1015.8
20260510061535 51 360 3.5 10.4 0.00 0.06 0.00 87 1015.1
20260510060030 51 360 5.2 10.4 0.00 0.06 0.06 88 1014.6
20260510054559 51 360 5.2 10.4 0.00 0.06 0.06 88 1014.5
20260510053028 51 360 3.5 7.0 0.00 0.06 0.06 87 1014.6
20260510051549 51 360 5.2 12.2 0.01 0.06 0.06 87 1014.8
20260510050054 51 360 7.8 13.9 0.05 0.06 0.06 87 1014.6
20260510044519 51 360 6.1 11.3 0.06 0.06 0.06 86 1014.7
20260510043055 52 360 2.6 4.3 0.06 0.06 0.06 84 1015.0
20260510041540 53 360 7.0 11.3 0.05 0.05 0.05 79 1015.2
20260510040048 56 360 7.8 16.5 0.00 0.00 0.01 70 1015.7
20260510034528 58 360 7.0 11.3 0.00 0.00 0.00 60 1015.4
20260510033004 58 360 5.2 13.0 0.00 0.00 0.00 56 1013.3
20260510031552 58 360 10.4 16.5 0.00 0.00 0.00 56 1011.1
20260510030007 59 360 9.6 13.0 0.00 0.00 0.00 57 1010.1
20260510024601 59 360 5.2 8.7 0.00 0.00 0.00 58 1009.0
20260510023102 59 360 4.3 7.8 0.00 0.00 0.00 59 1008.7
20260510023005 59 360 4.3 7.8 0.00 0.00 0.00 59 1008.7
20260510021529 60 360 2.6 7.8 0.00 0.00 0.00 59 1008.4
20260510020058 61 360 3.5 7.8 0.00 0.00 0.00 57 1008.5
20260510014540 63 360 3.5 7.8 0.00 0.00 0.00 54 1008.2
20260510013103 64 360 4.3 8.7 0.00 0.00 0.00 53 1008.0
20260510011519 65 360 7.8 12.2 0.00 0.00 0.00 53 1007.4
20260510010052 66 360 5.2 8.7 0.00 0.00 0.00 52 1006.9
20260510004510 68 360 3.5 9.6 0.00 0.00 0.00 49 1006.2
20260510003029 68 360 7.0 19.1 0.00 0.00 0.00 48 1005.9
20260510001600 72 360 12.2 26.9 0.00 0.00 0.00 43 1006.3
20260510001505 73 360 12.2 26.9 0.00 0.00 0.00 40 1006.3
20260510000039 76 360 10.4 15.6 0.00 0.00 0.00 33 1006.2
20260509234556 76 360 9.6 15.6 0.00 0.00 0.00 32 1005.8
20260509233018 78 360 9.6 19.1 0.00 0.00 0.00 31 1005.5
20260509231608 79 360 6.1 13.9 0.00 0.00 0.00 29 1005.5
20260509230018 79 360 5.2 9.6 0.00 0.00 0.00 29 1005.6